| time (UTC) | temp F | wind direction | speed MPH | gust MPH | rain 1hr in | rain 24hr in | rain mn in | humidity % | barometer mb |
| 20260903143521 | 54 | 153 | 0.0 | 3.0 | 0.00 | 0.02 | 0.02 | 92 | 1008.4 |
| 20260903143039 | 54 | 260 | 0.0 | 3.0 | 0.00 | 0.02 | 0.02 | 92 | 1008.4 |
| 20260903142513 | 54 | 319 | 0.0 | 3.0 | 0.00 | 0.02 | 0.02 | 92 | 1008.4 |
| 20260903142019 | 54 | 319 | 0.0 | 2.0 | 0.00 | 0.02 | 0.02 | 93 | 1008.3 |
| 20260903141535 | 54 | 319 | 0.0 | 1.0 | 0.00 | 0.02 | 0.02 | 93 | 1008.3 |
| 20260903141013 | 54 | 300 | 0.0 | 2.0 | 0.00 | 0.02 | 0.02 | 93 | 1008.2 |
| 20260903140519 | 54 | 300 | 0.0 | 2.0 | 0.00 | 0.02 | 0.02 | 93 | 1008.2 |
| 20260903140028 | 54 | 300 | 0.0 | 1.0 | 0.00 | 0.02 | 0.02 | 93 | 1008.2 |
| 20260903135510 | 54 | 300 | 0.0 | 2.0 | 0.00 | 0.02 | 0.02 | 93 | 1008.2 |
| 20260903135016 | 53 | 300 | 0.0 | 2.0 | 0.00 | 0.02 | 0.02 | 92 | 1008.1 |
| 20260903134543 | 54 | 300 | 0.0 | 3.0 | 0.00 | 0.02 | 0.02 | 93 | 1008.0 |
| 20260903134009 | 54 | 300 | 0.0 | 3.0 | 0.00 | 0.02 | 0.02 | 93 | 1008.0 |
| 20260903133518 | 54 | 340 | 0.0 | 1.0 | 0.00 | 0.02 | 0.02 | 93 | 1007.9 |
| 20260903133033 | 54 | 340 | 0.0 | 1.0 | 0.00 | 0.02 | 0.02 | 92 | 1007.9 |
| 20260903132509 | 54 | 340 | 0.0 | 1.0 | 0.01 | 0.02 | 0.02 | 93 | 1007.9 |
| 20260903132015 | 54 | 340 | 0.0 | 5.0 | 0.01 | 0.02 | 0.02 | 93 | 1007.8 |
| 20260903131530 | 54 | 340 | 0.0 | 5.0 | 0.01 | 0.02 | 0.02 | 93 | 1007.7 |
| 20260903131010 | 54 | 199 | 0.0 | 2.0 | 0.01 | 0.02 | 0.02 | 93 | 1007.7 |
| 20260903130515 | 54 | 199 | 0.0 | 2.0 | 0.01 | 0.02 | 0.02 | 92 | 1007.6 |
| 20260903130029 | 54 | 306 | 0.0 | 0.0 | 0.01 | 0.02 | 0.02 | 93 | 1007.5 |
| 20260903125510 | 54 | 306 | 0.0 | 0.0 | 0.01 | 0.02 | 0.02 | 92 | 1007.5 |
| 20260903125014 | 54 | 231 | 0.0 | 1.0 | 0.01 | 0.02 | 0.02 | 92 | 1007.5 |
| 20260903124530 | 54 | 188 | 0.0 | 2.0 | 0.01 | 0.02 | 0.02 | 92 | 1007.4 |
| 20260903124011 | 54 | 188 | 0.0 | 3.0 | 0.01 | 0.02 | 0.02 | 92 | 1007.4 |
| 20260903123520 | 54 | 132 | 0.0 | 3.0 | 0.01 | 0.02 | 0.02 | 92 | 1007.4 |
| 20260903123028 | 54 | 131 | 0.0 | 2.0 | 0.01 | 0.02 | 0.02 | 92 | 1007.3 |
| 20260903122510 | 54 | 263 | 0.0 | 2.0 | 0.00 | 0.01 | 0.01 | 91 | 1007.3 |
| 20260903122018 | 54 | 273 | 0.0 | 2.0 | 0.01 | 0.01 | 0.01 | 91 | 1007.3 |
| 20260903121503 | 54 | 63 | 0.0 | 0.0 | 0.01 | 0.01 | 0.01 | 91 | 1007.3 |
| 20260903121011 | 54 | 63 | 0.0 | 0.0 | 0.01 | 0.01 | 0.01 | 91 | 1007.2 |
| 20260903120506 | 54 | 63 | 0.0 | 0.0 | 0.01 | 0.01 | 0.01 | 91 | 1007.2 |
| 20260903120003 | 54 | 63 | 0.0 | 3.0 | 0.01 | 0.01 | 0.01 | 91 | 1007.2 |
| 20260903115508 | 54 | 63 | 0.0 | 3.0 | 0.01 | 0.01 | 0.01 | 91 | 1007.2 |
| 20260903115006 | 54 | 63 | 0.0 | 2.0 | 0.01 | 0.01 | 0.01 | 91 | 1007.1 |
| 20260903114503 | 54 | 63 | 0.0 | 3.0 | 0.01 | 0.01 | 0.01 | 91 | 1007.1 |
| 20260903114015 | 54 | 63 | 0.0 | 3.0 | 0.01 | 0.01 | 0.01 | 91 | 1007.1 |
| 20260903113503 | 55 | 56 | 0.0 | 2.0 | 0.01 | 0.01 | 0.01 | 90 | 1007.0 |
| 20260903113004 | 55 | 146 | 1.0 | 2.0 | 0.01 | 0.01 | 0.01 | 90 | 1007.0 |
| 20260903112514 | 55 | 146 | 0.0 | 2.0 | 0.01 | 0.01 | 0.01 | 89 | 1007.0 |
| 20260903112004 | 55 | 85 | 0.0 | 2.0 | 0.00 | 0.00 | 0.00 | 89 | 1006.9 |
| 20260903111503 | 55 | 180 | 0.0 | 3.0 | 0.00 | 0.00 | 0.00 | 88 | 1006.8 |
| 20260903111011 | 55 | 118 | 0.0 | 3.0 | 0.00 | 0.00 | 0.00 | 88 | 1006.7 |
| 20260903110509 | 55 | 185 | 1.0 | 3.0 | 0.00 | 0.00 | 0.00 | 87 | 1006.7 |
| 20260903110029 | 55 | 190 | 1.0 | 3.0 | 0.00 | 0.00 | 0.00 | 87 | 1006.7 |
| 20260903105509 | 55 | 254 | 1.0 | 3.0 | 0.00 | 0.00 | 0.00 | 87 | 1006.7 |
| 20260903105007 | 55 | 334 | 0.0 | 2.0 | 0.00 | 0.00 | 0.00 | 87 | 1006.6 |
| 20260903104530 | 55 | 334 | 0.0 | 2.0 | 0.00 | 0.00 | 0.00 | 87 | 1006.6 |
| 20260903104014 | 55 | 334 | 0.0 | 2.0 | 0.00 | 0.00 | 0.00 | 87 | 1006.6 |
| 20260903103503 | 55 | 334 | 0.0 | 1.0 | 0.00 | 0.00 | 0.00 | 87 | 1006.6 |
| 20260903103030 | 55 | 334 | 0.0 | 2.0 | 0.00 | 0.00 | 0.00 | 87 | 1006.7 |
| 20260903102512 | 55 | 334 | 0.0 | 2.0 | 0.00 | 0.00 | 0.00 | 87 | 1006.7 |
| 20260903102004 | 55 | 150 | 0.0 | 0.0 | 0.00 | 0.00 | 0.00 | 87 | 1006.7 |
| 20260903101532 | 55 | 150 | 0.0 | 0.0 | 0.00 | 0.00 | 0.00 | 87 | 1006.7 |
| 20260903101010 | 55 | 150 | 0.0 | 3.0 | 0.00 | 0.00 | 0.00 | 87 | 1006.7 |
| 20260903100504 | 55 | 154 | 0.0 | 3.0 | 0.00 | 0.00 | 0.00 | 86 | 1006.7 |
| 20260903100031 | 55 | 132 | 0.0 | 3.0 | 0.00 | 0.00 | 0.00 | 87 | 1006.6 |
| 20260903095513 | 55 | 140 | 0.0 | 4.0 | 0.00 | 0.00 | 0.00 | 87 | 1006.5 |
| 20260903095005 | 55 | 226 | 0.0 | 4.0 | 0.00 | 0.00 | 0.00 | 87 | 1006.6 |
| 20260903094530 | 55 | 229 | 0.0 | 2.0 | 0.00 | 0.00 | 0.00 | 88 | 1006.4 |
| 20260903094012 | 55 | 315 | 0.0 | 5.0 | 0.00 | 0.00 | 0.00 | 88 | 1006.5 |
| 20260903093504 | 55 | 315 | 0.0 | 5.0 | 0.00 | 0.00 | 0.00 | 88 | 1006.6 |
| 20260903093047 | 55 | 221 | 0.0 | 2.0 | 0.00 | 0.00 | 0.00 | 88 | 1006.6 |
| 20260903092515 | 55 | 221 | 0.0 | 3.0 | 0.00 | 0.00 | 0.00 | 88 | 1006.7 |
| 20260903092003 | 55 | 221 | 0.0 | 4.0 | 0.00 | 0.00 | 0.00 | 88 | 1006.6 |
| 20260903091531 | 55 | 219 | 0.0 | 4.0 | 0.00 | 0.00 | 0.00 | 88 | 1006.5 |
| 20260903091009 | 55 | 213 | 1.0 | 4.0 | 0.00 | 0.00 | 0.00 | 88 | 1006.4 |
| 20260903090506 | 54 | 300 | 1.0 | 3.0 | 0.00 | 0.00 | 0.00 | 88 | 1006.4 |
| 20260903090034 | 54 | 300 | 1.0 | 3.0 | 0.00 | 0.00 | 0.00 | 88 | 1006.4 |
| 20260903085512 | 54 | 261 | 0.0 | 3.0 | 0.00 | 0.00 | 0.00 | 88 | 1006.5 |
| 20260903085005 | 54 | 214 | 0.0 | 0.0 | 0.00 | 0.00 | 0.00 | 88 | 1006.6 |
| 20260903084532 | 55 | 214 | 0.0 | 0.0 | 0.00 | 0.00 | 0.00 | 88 | 1006.6 |
| 20260903084010 | 55 | 214 | 0.0 | 0.0 | 0.00 | 0.00 | 0.00 | 88 | 1006.6 |
| 20260903083506 | 55 | 214 | 0.0 | 0.0 | 0.00 | 0.00 | 0.00 | 88 | 1006.6 |
| 20260903083031 | 55 | 214 | 0.0 | 0.0 | 0.00 | 0.00 | 0.00 | 88 | 1006.6 |
| 20260903082512 | 55 | 214 | 0.0 | 1.0 | 0.00 | 0.00 | 0.00 | 88 | 1006.5 |
| 20260903082008 | 55 | 214 | 0.0 | 1.0 | 0.00 | 0.00 | 0.00 | 87 | 1006.5 |
| 20260903081540 | 55 | 214 | 0.0 | 1.0 | 0.00 | 0.00 | 0.00 | 87 | 1006.5 |
| 20260903081016 | 55 | 214 | 0.0 | 1.0 | 0.00 | 0.00 | 0.00 | 87 | 1006.5 |
| 20260903080504 | 55 | 214 | 0.0 | 2.0 | 0.00 | 0.00 | 0.00 | 88 | 1006.5 |
| 20260903080035 | 55 | 214 | 0.0 | 2.0 | 0.00 | 0.00 | 0.00 | 87 | 1006.4 |
| 20260903075515 | 55 | 214 | 0.0 | 2.0 | 0.00 | 0.00 | 0.00 | 88 | 1006.4 |
| 20260903075006 | 55 | 214 | 0.0 | 2.0 | 0.00 | 0.00 | 0.00 | 87 | 1006.4 |
| 20260903074528 | 55 | 214 | 0.0 | 2.0 | 0.00 | 0.00 | 0.00 | 87 | 1006.4 |
| 20260903074011 | 55 | 302 | 0.0 | 2.0 | 0.00 | 0.00 | 0.00 | 87 | 1006.2 |
| 20260903073507 | 55 | 302 | 0.0 | 2.0 | 0.00 | 0.00 | 0.00 | 87 | 1006.2 |
| 20260903073033 | 55 | 230 | 0.0 | 2.0 | 0.00 | 0.00 | 0.00 | 87 | 1006.2 |
| 20260903072511 | 55 | 230 | 0.0 | 2.0 | 0.00 | 0.00 | 0.00 | 87 | 1006.1 |
| 20260903072004 | 55 | 230 | 0.0 | 2.0 | 0.00 | 0.00 | 0.00 | 87 | 1006.1 |
| 20260903071528 | 55 | 230 | 0.0 | 2.0 | 0.00 | 0.00 | 0.00 | 87 | 1006.0 |
| 20260903071009 | 55 | 230 | 0.0 | 2.0 | 0.00 | 0.00 | 0.00 | 87 | 1006.1 |
| 20260903070507 | 55 | 230 | 0.0 | 2.0 | 0.00 | 0.00 | 0.00 | 87 | 1006.0 |
| 20260903070032 | 55 | 230 | 0.0 | 2.0 | 0.00 | 0.00 | 0.00 | 87 | 1006.1 |
| 20260903065512 | 55 | 230 | 0.0 | 3.0 | 0.00 | 0.00 | 0.00 | 87 | 1006.1 |
| 20260903065020 | 55 | 230 | 0.0 | 3.0 | 0.00 | 0.00 | 0.00 | 87 | 1006.1 |
| 20260903064529 | 55 | 230 | 0.0 | 2.0 | 0.00 | 0.00 | 0.00 | 88 | 1006.0 |
| 20260903064010 | 55 | 230 | 0.0 | 2.0 | 0.00 | 0.00 | 0.00 | 88 | 1006.0 |
| 20260903063519 | 55 | 213 | 0.0 | 0.0 | 0.00 | 0.00 | 0.00 | 88 | 1006.0 |
| 20260903063033 | 55 | 213 | 0.0 | 0.0 | 0.00 | 0.00 | 0.00 | 89 | 1006.0 |
| 20260903062514 | 55 | 213 | 0.0 | 0.0 | 0.00 | 0.00 | 0.00 | 89 | 1006.0 |
| 20260903062016 | 55 | 213 | 0.0 | 0.0 | 0.00 | 0.00 | 0.00 | 89 | 1006.0 |
| 20260903061533 | 55 | 213 | 0.0 | 0.0 | 0.00 | 0.00 | 0.00 | 88 | 1005.9 |
| 20260903061012 | 55 | 213 | 0.0 | 0.0 | 0.00 | 0.00 | 0.00 | 87 | 1005.9 |
| 20260903060518 | 55 | 213 | 0.0 | 0.0 | 0.00 | 0.00 | 0.00 | 88 | 1005.9 |
| 20260903060033 | 56 | 213 | 0.0 | 0.0 | 0.00 | 0.00 | 0.00 | 88 | 1005.8 |
| 20260903055511 | 56 | 213 | 0.0 | 0.0 | 0.00 | 0.00 | 0.00 | 88 | 1005.8 |
| 20260903055017 | 56 | 213 | 0.0 | 0.0 | 0.00 | 0.00 | 0.00 | 88 | 1005.7 |
| 20260903054532 | 56 | 193 | 0.0 | 0.0 | 0.00 | 0.00 | 0.00 | 88 | 1005.5 |
| 20260903054010 | 56 | 193 | 0.0 | 2.0 | 0.00 | 0.00 | 0.00 | 88 | 1005.6 |
| 20260903053517 | 56 | 204 | 0.0 | 3.0 | 0.00 | 0.00 | 0.00 | 88 | 1005.6 |
| 20260903053033 | 56 | 204 | 1.0 | 3.0 | 0.00 | 0.00 | 0.00 | 88 | 1005.6 |
| 20260903052511 | 56 | 202 | 0.0 | 2.0 | 0.00 | 0.00 | 0.00 | 89 | 1005.7 |
| 20260903052019 | 56 | 170 | 0.0 | 2.0 | 0.00 | 0.00 | 0.00 | 89 | 1005.7 |
| 20260903051532 | 55 | 229 | 0.0 | 0.0 | 0.00 | 0.00 | 0.00 | 89 | 1005.7 |
| 20260903051011 | 55 | 229 | 0.0 | 0.0 | 0.00 | 0.00 | 0.00 | 89 | 1005.8 |
| 20260903050519 | 55 | 229 | 0.0 | 0.0 | 0.00 | 0.00 | 0.00 | 89 | 1005.8 |
| 20260903050032 | 55 | 229 | 0.0 | 0.0 | 0.00 | 0.00 | 0.00 | 89 | 1005.8 |
| 20260903045513 | 55 | 229 | 0.0 | 0.0 | 0.00 | 0.00 | 0.00 | 88 | 1005.9 |
| 20260903045016 | 55 | 229 | 0.0 | 0.0 | 0.00 | 0.00 | 0.00 | 88 | 1005.8 |
| 20260903044530 | 55 | 211 | 0.0 | 0.0 | 0.00 | 0.00 | 0.00 | 88 | 1005.9 |
| 20260903044012 | 55 | 211 | 0.0 | 0.0 | 0.00 | 0.00 | 0.00 | 88 | 1005.7 |
| 20260903043518 | 55 | 211 | 0.0 | 0.0 | 0.00 | 0.00 | 0.00 | 87 | 1005.7 |
| 20260903043031 | 55 | 211 | 0.0 | 0.0 | 0.00 | 0.00 | 0.00 | 87 | 1005.7 |
| 20260903042515 | 55 | 211 | 0.0 | 0.0 | 0.00 | 0.00 | 0.00 | 87 | 1005.5 |
| 20260903042019 | 55 | 211 | 0.0 | 0.0 | 0.00 | 0.00 | 0.00 | 87 | 1005.4 |
| 20260903041533 | 55 | 211 | 0.0 | 0.0 | 0.00 | 0.00 | 0.00 | 86 | 1005.4 |
| 20260903041014 | 55 | 211 | 0.0 | 0.0 | 0.00 | 0.00 | 0.00 | 86 | 1005.4 |
| 20260903040517 | 55 | 211 | 0.0 | 0.0 | 0.00 | 0.00 | 0.00 | 86 | 1005.3 |
| 20260903040029 | 55 | 211 | 0.0 | 0.0 | 0.00 | 0.00 | 0.00 | 86 | 1005.3 |
| 20260903035512 | 55 | 211 | 0.0 | 0.0 | 0.00 | 0.00 | 0.00 | 86 | 1005.3 |
| 20260903035018 | 55 | 211 | 0.0 | 0.0 | 0.00 | 0.00 | 0.00 | 85 | 1005.2 |
| 20260903034531 | 56 | 211 | 0.0 | 0.0 | 0.00 | 0.00 | 0.00 | 86 | 1005.1 |
| 20260903034011 | 56 | 211 | 0.0 | 0.0 | 0.00 | 0.00 | 0.00 | 85 | 1004.9 |
| 20260903033518 | 56 | 211 | 0.0 | 0.0 | 0.00 | 0.00 | 0.00 | 85 | 1004.7 |
| 20260903033034 | 56 | 211 | 0.0 | 0.0 | 0.00 | 0.00 | 0.00 | 84 | 1004.7 |
| 20260903032511 | 56 | 211 | 0.0 | 0.0 | 0.00 | 0.00 | 0.00 | 84 | 1004.6 |
| 20260903032020 | 56 | 211 | 0.0 | 0.0 | 0.00 | 0.00 | 0.00 | 84 | 1004.6 |
| 20260903031516 | 57 | 211 | 0.0 | 0.0 | 0.00 | 0.00 | 0.00 | 84 | 1004.5 |
| 20260903031009 | 57 | 211 | 0.0 | 0.0 | 0.00 | 0.00 | 0.00 | 84 | 1004.3 |
| 20260903030507 | 57 | 211 | 0.0 | 0.0 | 0.00 | 0.00 | 0.00 | 83 | 1004.2 |
| 20260903030003 | 57 | 211 | 0.0 | 0.0 | 0.00 | 0.00 | 0.00 | 83 | 1004.1 |
| 20260903025516 | 57 | 211 | 0.0 | 2.0 | 0.00 | 0.00 | 0.00 | 83 | 1004.0 |
| 20260903025006 | 57 | 211 | 0.0 | 2.0 | 0.00 | 0.00 | 0.00 | 83 | 1003.9 |
| 20260903024505 | 58 | 211 | 0.0 | 0.0 | 0.00 | 0.00 | 0.00 | 83 | 1003.8 |
| 20260903024011 | 58 | 211 | 0.0 | 0.0 | 0.00 | 0.00 | 0.00 | 84 | 1003.7 |
| 20260903023503 | 58 | 211 | 0.0 | 0.0 | 0.00 | 0.00 | 0.00 | 83 | 1003.7 |
| 20260903023004 | 58 | 171 | 0.0 | 0.0 | 0.00 | 0.00 | 0.00 | 84 | 1003.5 |
| 20260903022511 | 58 | 171 | 0.0 | 0.0 | 0.00 | 0.00 | 0.00 | 83 | 1003.4 |
| 20260903022007 | 58 | 171 | 0.0 | 1.0 | 0.00 | 0.00 | 0.00 | 82 | 1003.2 |
| 20260903021513 | 58 | 171 | 0.0 | 3.0 | 0.00 | 0.00 | 0.00 | 83 | 1003.0 |
| 20260903021012 | 58 | 171 | 0.0 | 3.0 | 0.00 | 0.00 | 0.00 | 82 | 1003.1 |
| 20260903020510 | 58 | 258 | 0.0 | 2.0 | 0.00 | 0.00 | 0.00 | 82 | 1002.9 |
| 20260903020031 | 58 | 240 | 1.0 | 2.0 | 0.00 | 0.00 | 0.00 | 83 | 1002.8 |
| 20260903015512 | 58 | 184 | 1.0 | 2.0 | 0.00 | 0.00 | 0.00 | 84 | 1002.8 |
| 20260903015007 | 58 | 89 | 0.0 | 2.0 | 0.00 | 0.00 | 0.00 | 84 | 1002.8 |
| 20260903014534 | 58 | 123 | 0.0 | 2.0 | 0.00 | 0.00 | 0.00 | 85 | 1002.8 |
| 20260903014012 | 58 | 209 | 0.0 | 3.0 | 0.00 | 0.00 | 0.00 | 85 | 1002.8 |
| 20260903013507 | 58 | 243 | 0.0 | 4.0 | 0.00 | 0.00 | 0.00 | 85 | 1002.8 |
| 20260903013033 | 58 | 280 | 1.0 | 4.0 | 0.00 | 0.00 | 0.00 | 85 | 1002.6 |
| 20260903012509 | 58 | 216 | 1.0 | 4.0 | 0.00 | 0.00 | 0.00 | 85 | 1002.5 |
| 20260903012008 | 58 | 238 | 1.0 | 5.0 | 0.00 | 0.00 | 0.00 | 85 | 1002.4 |
| 20260903011531 | 58 | 252 | 0.0 | 5.0 | 0.00 | 0.00 | 0.00 | 86 | 1002.4 |
| 20260903011015 | 58 | 111 | 1.0 | 3.0 | 0.00 | 0.00 | 0.00 | 86 | 1002.3 |
| 20260903010504 | 58 | 90 | 1.0 | 4.0 | 0.00 | 0.00 | 0.00 | 87 | 1002.4 |
| 20260903010032 | 58 | 76 | 0.0 | 4.0 | 0.00 | 0.00 | 0.00 | 87 | 1002.5 |
| 20260903005510 | 58 | 80 | 1.0 | 4.0 | 0.00 | 0.00 | 0.00 | 87 | 1002.6 |
| 20260903005009 | 58 | 160 | 1.0 | 4.0 | 0.00 | 0.00 | 0.00 | 88 | 1002.5 |
| 20260903004533 | 57 | 11 | 1.0 | 3.0 | 0.00 | 0.00 | 0.00 | 88 | 1002.6 |
| 20260903004011 | 57 | 64 | 1.0 | 3.0 | 0.00 | 0.00 | 0.00 | 89 | 1002.6 |
| 20260903003508 | 57 | 83 | 0.0 | 4.0 | 0.00 | 0.00 | 0.00 | 89 | 1002.6 |
| 20260903003033 | 57 | 52 | 1.0 | 4.0 | 0.00 | 0.00 | 0.00 | 90 | 1002.6 |
| 20260903002511 | 57 | 249 | 0.0 | 2.0 | 0.00 | 0.00 | 0.00 | 90 | 1002.5 |
| 20260903002008 | 57 | 281 | 0.0 | 3.0 | 0.00 | 0.00 | 0.00 | 90 | 1002.6 |
| 20260903001534 | 57 | 74 | 0.0 | 3.0 | 0.00 | 0.00 | 0.00 | 90 | 1002.6 |
| 20260903001012 | 57 | 53 | 0.0 | 3.0 | 0.00 | 0.00 | 0.00 | 90 | 1002.6 |
| 20260903000519 | 57 | 217 | 1.0 | 3.0 | 0.00 | 0.00 | 0.00 | 90 | 1002.6 |
| 20260903000031 | 57 | 19 | 0.0 | 2.0 | 0.00 | 0.00 | 0.00 | 90 | 1002.7 |
| 20260902235513 | 57 | 19 | 1.0 | 2.0 | 0.00 | 0.00 | 0.00 | 91 | 1002.6 |
| 20260902235018 | 57 | 88 | 0.0 | 2.0 | 0.00 | 0.00 | 0.00 | 91 | 1002.6 |
| 20260902234529 | 57 | 110 | 0.0 | 4.0 | 0.00 | 0.00 | 0.00 | 91 | 1002.7 |
| 20260902234010 | 57 | 128 | 0.0 | 4.0 | 0.00 | 0.00 | 0.00 | 90 | 1002.8 |
| 20260902233516 | 57 | 87 | 1.0 | 4.0 | 0.00 | 0.00 | 0.00 | 90 | 1002.7 |
| 20260902233032 | 57 | 32 | 1.0 | 8.0 | 0.00 | 0.00 | 0.00 | 90 | 1002.7 |
| 20260902232514 | 57 | 67 | 1.0 | 8.0 | 0.00 | 0.00 | 0.00 | 90 | 1002.8 |
| 20260902232021 | 57 | 56 | 0.0 | 3.0 | 0.00 | 0.00 | 0.00 | 89 | 1002.8 |
| 20260902231544 | 57 | 91 | 0.0 | 3.0 | 0.00 | 0.00 | 0.00 | 89 | 1002.9 |
| 20260902231014 | 57 | 96 | 0.0 | 5.0 | 0.00 | 0.00 | 0.00 | 89 | 1002.9 |
| 20260902230519 | 57 | 162 | 0.0 | 7.0 | 0.00 | 0.00 | 0.00 | 89 | 1002.9 |
| 20260902230033 | 57 | 181 | 0.0 | 7.0 | 0.00 | 0.00 | 0.00 | 88 | 1002.9 |
| 20260902225512 | 58 | 329 | 1.0 | 4.0 | 0.00 | 0.00 | 0.00 | 87 | 1002.7 |
| 20260902225018 | 58 | 182 | 0.0 | 3.0 | 0.00 | 0.00 | 0.00 | 86 | 1002.6 |
| 20260902224529 | 58 | 230 | 0.0 | 4.0 | 0.00 | 0.00 | 0.00 | 85 | 1002.7 |
| 20260902224011 | 58 | 182 | 1.0 | 4.0 | 0.00 | 0.00 | 0.00 | 84 | 1002.6 |
| 20260902223517 | 59 | 171 | 0.0 | 5.0 | 0.00 | 0.00 | 0.00 | 84 | 1002.7 |
| 20260902223033 | 59 | 194 | 1.0 | 5.0 | 0.00 | 0.00 | 0.00 | 82 | 1002.7 |
| 20260902222511 | 60 | 249 | 1.0 | 5.0 | 0.00 | 0.00 | 0.00 | 81 | 1002.9 |
| 20260902222019 | 60 | 291 | 1.0 | 5.0 | 0.00 | 0.00 | 0.00 | 80 | 1003.0 |
| 20260902221531 | 60 | 225 | 1.0 | 5.0 | 0.00 | 0.00 | 0.00 | 78 | 1003.0 |
| 20260902221012 | 60 | 168 | 1.0 | 6.0 | 0.00 | 0.00 | 0.00 | 78 | 1003.0 |
| 20260902220516 | 61 | 229 | 1.0 | 6.0 | 0.00 | 0.00 | 0.00 | 78 | 1003.3 |
| 20260902220032 | 61 | 204 | 1.0 | 4.0 | 0.00 | 0.00 | 0.00 | 77 | 1003.1 |
| 20260902215515 | 61 | 180 | 0.0 | 6.0 | 0.00 | 0.00 | 0.00 | 77 | 1003.1 |
| 20260902215015 | 61 | 321 | 2.0 | 6.0 | 0.00 | 0.00 | 0.00 | 77 | 1003.2 |
| 20260902214533 | 62 | 219 | 2.0 | 6.0 | 0.00 | 0.00 | 0.00 | 76 | 1003.1 |
| 20260902214024 | 62 | 183 | 1.0 | 5.0 | 0.00 | 0.00 | 0.00 | 76 | 1003.2 |
| 20260902213523 | 63 | 173 | 1.0 | 9.0 | 0.00 | 0.00 | 0.00 | 75 | 1003.2 |
| 20260902213031 | 63 | 174 | 2.0 | 9.0 | 0.00 | 0.00 | 0.00 | 76 | 1003.1 |
| 20260902212519 | 63 | 62 | 0.0 | 3.0 | 0.00 | 0.00 | 0.00 | 77 | 1003.2 |
| 20260902212018 | 63 | 175 | 0.0 | 5.0 | 0.00 | 0.00 | 0.00 | 77 | 1003.3 |
| 20260902211530 | 63 | 112 | 2.0 | 5.0 | 0.00 | 0.00 | 0.00 | 76 | 1003.3 |
| 20260902211012 | 63 | 134 | 1.0 | 5.0 | 0.00 | 0.00 | 0.00 | 75 | 1003.4 |
| 20260902210507 | 63 | 163 | 1.0 | 6.0 | 0.00 | 0.00 | 0.00 | 75 | 1003.4 |
| 20260902210036 | 63 | 105 | 1.0 | 6.0 | 0.00 | 0.00 | 0.00 | 74 | 1003.4 |
| 20260902205511 | 63 | 210 | 1.0 | 6.0 | 0.00 | 0.00 | 0.00 | 75 | 1003.4 |
| 20260902205008 | 63 | 84 | 1.0 | 4.0 | 0.00 | 0.00 | 0.00 | 75 | 1003.4 |
| 20260902204533 | 63 | 62 | 1.0 | 4.0 | 0.00 | 0.00 | 0.00 | 77 | 1003.5 |
| 20260902204014 | 63 | 63 | 1.0 | 5.0 | 0.00 | 0.00 | 0.00 | 77 | 1003.4 |
| 20260902203510 | 63 | 157 | 0.0 | 5.0 | 0.00 | 0.00 | 0.00 | 78 | 1003.6 |
| 20260902203029 | 63 | 92 | 1.0 | 3.0 | 0.00 | 0.00 | 0.00 | 78 | 1003.6 |
| 20260902202512 | 63 | 61 | 1.0 | 3.0 | 0.00 | 0.00 | 0.00 | 78 | 1003.7 |
| 20260902202008 | 63 | 64 | 0.0 | 3.0 | 0.00 | 0.00 | 0.00 | 78 | 1003.9 |
| 20260902201529 | 63 | 42 | 0.0 | 4.0 | 0.00 | 0.00 | 0.00 | 76 | 1004.0 |
| 20260902201011 | 64 | 76 | 0.0 | 4.0 | 0.00 | 0.00 | 0.00 | 73 | 1004.0 |
| 20260902200509 | 65 | 217 | 1.0 | 4.0 | 0.00 | 0.00 | 0.00 | 70 | 1004.1 |
| 20260902200030 | 65 | 223 | 1.0 | 4.0 | 0.00 | 0.00 | 0.00 | 69 | 1004.0 |
| 20260902195511 | 65 | 163 | 1.0 | 3.0 | 0.00 | 0.00 | 0.00 | 69 | 1003.9 |
| 20260902195009 | 65 | 180 | 1.0 | 3.0 | 0.00 | 0.00 | 0.00 | 68 | 1003.9 |
| 20260902194530 | 65 | 184 | 1.0 | 3.0 | 0.00 | 0.00 | 0.00 | 68 | 1003.8 |
| 20260902194014 | 65 | 211 | 1.0 | 4.0 | 0.00 | 0.00 | 0.00 | 69 | 1003.9 |
| 20260902193506 | 65 | 138 | 1.0 | 4.0 | 0.00 | 0.00 | 0.00 | 68 | 1003.9 |
| 20260902193030 | 65 | 147 | 0.0 | 4.0 | 0.00 | 0.00 | 0.00 | 69 | 1003.9 |
| 20260902192513 | 65 | 140 | 1.0 | 5.0 | 0.00 | 0.00 | 0.00 | 69 | 1004.0 |
| 20260902192006 | 64 | 258 | 2.0 | 5.0 | 0.00 | 0.00 | 0.00 | 70 | 1003.9 |
| 20260902191531 | 64 | 137 | 1.0 | 6.0 | 0.00 | 0.00 | 0.00 | 72 | 1003.9 |
| 20260902191011 | 63 | 169 | 1.0 | 6.0 | 0.00 | 0.00 | 0.00 | 72 | 1004.0 |
| 20260902190507 | 63 | 223 | 1.0 | 4.0 | 0.00 | 0.00 | 0.00 | 73 | 1004.2 |
| 20260902190034 | 63 | 56 | 2.0 | 4.0 | 0.00 | 0.00 | 0.00 | 74 | 1004.1 |
| 20260902185512 | 62 | 99 | 1.0 | 4.0 | 0.00 | 0.00 | 0.00 | 75 | 1004.1 |
| 20260902185009 | 62 | 96 | 1.0 | 3.0 | 0.00 | 0.00 | 0.00 | 75 | 1004.1 |
| 20260902184537 | 62 | 36 | 1.0 | 3.0 | 0.00 | 0.00 | 0.00 | 74 | 1004.3 |
| 20260902184011 | 62 | 88 | 1.0 | 3.0 | 0.00 | 0.00 | 0.00 | 75 | 1004.3 |
| 20260902183508 | 62 | 131 | 1.0 | 3.0 | 0.00 | 0.00 | 0.00 | 76 | 1004.4 |
| 20260902183032 | 62 | 324 | 0.0 | 3.0 | 0.00 | 0.00 | 0.00 | 76 | 1004.3 |
| 20260902182515 | 62 | 44 | 0.0 | 3.0 | 0.00 | 0.00 | 0.00 | 77 | 1004.6 |
| 20260902182008 | 62 | 221 | 0.0 | 7.0 | 0.00 | 0.00 | 0.00 | 77 | 1004.6 |
| 20260902181532 | 62 | 87 | 1.0 | 7.0 | 0.00 | 0.00 | 0.00 | 78 | 1004.8 |
| 20260902181014 | 61 | 33 | 0.0 | 3.0 | 0.00 | 0.00 | 0.00 | 77 | 1004.8 |
| 20260902180507 | 61 | 33 | 0.0 | 3.0 | 0.00 | 0.00 | 0.00 | 78 | 1004.9 |
| 20260902180028 | 61 | 55 | 0.0 | 3.0 | 0.00 | 0.00 | 0.00 | 79 | 1005.0 |
| 20260902175513 | 61 | 232 | 0.0 | 3.0 | 0.00 | 0.00 | 0.00 | 79 | 1005.0 |
| 20260902175008 | 60 | 134 | 0.0 | 2.0 | 0.00 | 0.00 | 0.00 | 78 | 1005.1 |
| 20260902174532 | 60 | 119 | 0.0 | 8.0 | 0.00 | 0.00 | 0.00 | 78 | 1005.1 |
| 20260902174016 | 60 | 167 | 1.0 | 8.0 | 0.00 | 0.00 | 0.00 | 78 | 1005.1 |
| 20260902173507 | 60 | 301 | 1.0 | 5.0 | 0.00 | 0.00 | 0.00 | 78 | 1005.2 |
| 20260902173029 | 60 | 297 | 0.0 | 8.0 | 0.00 | 0.00 | 0.00 | 79 | 1005.2 |
| 20260902172514 | 61 | 227 | 0.0 | 8.0 | 0.00 | 0.00 | 0.00 | 79 | 1005.2 |
| 20260902172007 | 60 | 303 | 0.0 | 7.0 | 0.00 | 0.00 | 0.00 | 78 | 1005.3 |
| 20260902171531 | 61 | 182 | 0.0 | 7.0 | 0.00 | 0.00 | 0.00 | 79 | 1005.2 |
| 20260902171013 | 61 | 84 | 1.0 | 7.0 | 0.00 | 0.00 | 0.00 | 79 | 1005.4 |
| 20260902170507 | 61 | 240 | 1.0 | 4.0 | 0.00 | 0.00 | 0.00 | 79 | 1005.2 |
| 20260902170030 | 61 | 46 | 1.0 | 4.0 | 0.00 | 0.00 | 0.00 | 79 | 1005.3 |
| 20260902165517 | 61 | 269 | 0.0 | 4.0 | 0.00 | 0.00 | 0.00 | 78 | 1005.3 |
| 20260902165015 | 61 | 157 | 1.0 | 3.0 | 0.00 | 0.00 | 0.00 | 78 | 1005.4 |
| 20260902164534 | 61 | 143 | 0.0 | 3.0 | 0.00 | 0.00 | 0.00 | 78 | 1005.5 |
| 20260902164012 | 61 | 103 | 1.0 | 3.0 | 0.00 | 0.00 | 0.00 | 77 | 1005.5 |
| 20260902163518 | 61 | 84 | 1.0 | 4.0 | 0.00 | 0.00 | 0.00 | 77 | 1005.4 |
| 20260902163031 | 61 | 146 | 0.0 | 4.0 | 0.00 | 0.00 | 0.00 | 77 | 1005.4 |
| 20260902162511 | 61 | 76 | 0.0 | 5.0 | 0.00 | 0.00 | 0.00 | 77 | 1005.5 |
| 20260902162018 | 61 | 209 | 0.0 | 5.0 | 0.00 | 0.00 | 0.00 | 77 | 1005.5 |
| 20260902161535 | 61 | 263 | 1.0 | 4.0 | 0.00 | 0.00 | 0.00 | 79 | 1005.7 |
| 20260902161013 | 61 | 41 | 0.0 | 3.0 | 0.00 | 0.00 | 0.00 | 79 | 1005.4 |
| 20260902160520 | 60 | 83 | 0.0 | 2.0 | 0.00 | 0.00 | 0.00 | 80 | 1005.6 |
| 20260902160045 | 60 | 90 | 0.0 | 2.0 | 0.00 | 0.00 | 0.00 | 80 | 1005.7 |
| 20260902155514 | 60 | 71 | 0.0 | 5.0 | 0.00 | 0.00 | 0.00 | 80 | 1005.7 |
| 20260902155019 | 60 | 11 | 0.0 | 5.0 | 0.00 | 0.00 | 0.00 | 80 | 1005.7 |
| 20260902154537 | 60 | 173 | 1.0 | 6.0 | 0.00 | 0.00 | 0.00 | 80 | 1005.8 |
| 20260902154013 | 60 | 89 | 2.0 | 6.0 | 0.00 | 0.00 | 0.00 | 80 | 1005.8 |
| 20260902153518 | 60 | 161 | 2.0 | 5.0 | 0.00 | 0.00 | 0.00 | 81 | 1005.7 |
| 20260902153033 | 60 | 132 | 1.0 | 4.0 | 0.00 | 0.00 | 0.00 | 82 | 1005.5 |
| 20260902152511 | 59 | 148 | 1.0 | 4.0 | 0.00 | 0.00 | 0.00 | 83 | 1005.4 |
| 20260902152017 | 59 | 101 | 1.0 | 4.0 | 0.00 | 0.00 | 0.00 | 83 | 1005.4 |
| 20260902151531 | 59 | 92 | 1.0 | 4.0 | 0.00 | 0.00 | 0.00 | 84 | 1005.4 |
| 20260902151012 | 59 | 92 | 1.0 | 4.0 | 0.00 | 0.00 | 0.00 | 85 | 1005.6 |
| 20260902150518 | 58 | 60 | 1.0 | 3.0 | 0.00 | 0.00 | 0.00 | 85 | 1005.7 |
| 20260902150032 | 58 | 80 | 0.0 | 3.0 | 0.00 | 0.00 | 0.00 | 85 | 1005.8 |
| 20260902145513 | 58 | 86 | 1.0 | 3.0 | 0.00 | 0.00 | 0.00 | 85 | 1005.8 |
| 20260902145020 | 58 | 158 | 0.0 | 3.0 | 0.00 | 0.00 | 0.00 | 85 | 1005.8 |
| 20260902144531 | 58 | 82 | 0.0 | 2.0 | 0.00 | 0.00 | 0.00 | 85 | 1005.9 |
| 20260902144012 | 58 | 94 | 1.0 | 2.0 | 0.00 | 0.00 | 0.00 | 85 | 1006.0 |